Weather History for KITH - May, 2012

Change the Weather History Date:

Monday, May 21, 2012

  Actual Average Record
Temperature  
Mean Temperature 66 °F -  
Max Temperature 75 °F 68 °F 90 °F (1934)
Min Temperature 57 °F 46 °F 31 °F (1967)
Cooling Degree Days 1    
Growing Degree Days 16 (Base 50)    
Moisture  
Dew Point 54 °F    
Average Humidity 66    
Maximum Humidity 87    
Minimum Humidity 46    
Precipitation  
Precipitation 0.00 in - - ()
Sea Level Pressure  
Sea Level Pressure 30.10 in    
Wind  
Wind Speed 7 mph (SE)    
Max Wind Speed 14 mph    
Max Gust Speed 20 mph    
Visibility 10 miles    
Events Rain    
Averages and records for this station are not official NWS values.
T = Trace of Precipitation, MM = Missing Value Source: NWS Daily Summary

Daily Weather History Graph

Daily Weather History Graph

Search for Another Location

Airport or City:

Trip Planner

Search our weather history database for the weather conditions in past years. The results will help you decide how hot, cold, wet, or windy it might be!

Date:

Astronomy

May. 21, 2012 Rise Set
Actual Time 5:38 AM EDT 8:27 PM EDT
Civil Twilight 5:05 AM EDT 9:00 PM EDT
Nautical Twilight 4:23 AM EDT 9:42 PM EDT
Astronomical Twilight 3:35 AM EDT 10:30 PM EDT
Moon 5:59 AM EDT (5/21) 9:16 PM EDT (5/21)
Length of Visible Light 15h 55m
Length of Day
14h 49m
New Moon, 0% of the Moon is Illuminated
May 21
New Moon
May 28
First Quarter
Jun 4
Full
Jun 11
Last Quarter
Jun 19
New

Hourly Weather History & Observations

Time (EDT) Temp. Dew Point Humidity Pressure Visibility Wind Dir Wind Speed Gust Speed Precip Events Conditions
12:56 AM 63.0 °F 47.8 °F 58% 30.17 in 10.0 mi Calm Calm - N/A   Clear
1:56 AM 63.9 °F 45.0 °F 50% 30.16 in 10.0 mi ESE 6.9 mph - N/A   Clear
2:56 AM 63.0 °F 41.9 °F 46% 30.15 in 10.0 mi ESE 6.9 mph - N/A   Clear
3:56 AM 57.9 °F 41.0 °F 53% 30.16 in 10.0 mi SSE 8.1 mph - N/A   Clear
4:56 AM 59.9 °F 45.0 °F 58% 30.16 in 10.0 mi ESE 8.1 mph - N/A   Clear
5:56 AM 59.0 °F 48.9 °F 69% 30.16 in 10.0 mi SE 6.9 mph - N/A   Clear
6:16 AM 60.8 °F 48.2 °F 63% 30.18 in 10.0 mi ESE 9.2 mph - N/A   Clear
6:56 AM 61.0 °F 48.9 °F 64% 30.15 in 10.0 mi SE 8.1 mph - N/A   Clear
7:56 AM 63.9 °F 50.9 °F 63% 30.15 in 10.0 mi SE 10.4 mph - N/A   Clear
8:56 AM 65.8 °F 54.0 °F 65% 30.15 in 10.0 mi SSE 11.5 mph - N/A   Clear
9:56 AM 70.0 °F 56.8 °F 63% 30.13 in 10.0 mi SE 12.7 mph 17.3 mph N/A   Clear
10:56 AM 72.9 °F 59.9 °F 64% 30.12 in 10.0 mi SSE 9.2 mph - N/A   Partly Cloudy
11:56 AM 74.8 °F 61.0 °F 62% 30.11 in 10.0 mi SSE 12.7 mph 18.4 mph N/A   Mostly Cloudy
12:56 PM 75.9 °F 61.0 °F 60% 30.09 in 10.0 mi South 11.5 mph - N/A   Mostly Cloudy
1:56 PM 73.9 °F 61.0 °F 64% 30.08 in 10.0 mi SSE 13.8 mph 19.6 mph N/A   Overcast
2:56 PM 70.0 °F 61.0 °F 73% 30.07 in 10.0 mi ESE 11.5 mph - 0.00 in Rain Light Rain Showers
3:56 PM 72.9 °F 61.0 °F 66% 30.04 in 10.0 mi SSE 11.5 mph - 0.00 in   Mostly Cloudy
4:56 PM 70.9 °F 59.0 °F 66% 30.02 in 10.0 mi SE 11.5 mph - N/A   Mostly Cloudy
5:56 PM 70.0 °F 59.0 °F 68% 30.02 in 10.0 mi SE 9.2 mph - N/A   Mostly Cloudy
6:56 PM 66.9 °F 59.0 °F 76% 30.02 in 10.0 mi SE 6.9 mph - N/A   Mostly Cloudy
7:56 PM 65.8 °F 59.0 °F 79% 30.01 in 10.0 mi SE 5.8 mph - N/A   Mostly Cloudy
8:56 PM 64.9 °F 59.0 °F 81% 30.01 in 10.0 mi ESE 6.9 mph - N/A   Mostly Cloudy
9:56 PM 63.0 °F 59.0 °F 87% 30.01 in 10.0 mi SE 8.1 mph - N/A   Scattered Clouds
10:56 PM 63.0 °F 59.0 °F 87% 29.99 in 10.0 mi SE 9.2 mph - N/A   Overcast